Regional Weather Roundup
Issued by NWS

Home | Current Version | Previous Version | Graphics & Text | Print | Product List | Glossary Off
Versions: 1 2 3 4 5 6 7 8 9 10 11 12 13 14 15 16 17 18 19 20 21 22 23 24 25 26 27 28 29 30 31 32 33 34 35 36 37 38 39 40 41 42 43 44 45 46 47 48 49 50

000
ASUS43 KFSD 051102
RWRSD

WEATHER ROUNDUP FOR SOUTH DAKOTA
NATIONAL WEATHER SERVICE SIOUX FALLS SD
600 AM CDT WED AUG 05 2015

NOTE: "FAIR" INDICATES FEW OR NO CLOUDS BELOW 12,000 FEET WITH NO
SIGNIFICANT WEATHER AND/OR OBSTRUCTIONS TO VISIBILITY.


SDZ001>005-009-010-012>017-051200-
NORTHWEST AND NORTH CENTRAL SOUTH DAKOTA

CITY           SKY/WX    TMP DP  RH WIND       PRES   REMARKS
FAITH            N/A     64  60  87 SE12      29.96R
MOBRIDGE       MOCLDY    67  65  93 SE12      29.96S
$$

SDZ012>016-024>037-041>051-057-063-072>074-051200-
SOUTHWEST AND SOUTH CENTRAL SOUTH DAKOTA

CITY           SKY/WX    TMP DP  RH WIND       PRES   REMARKS
RAPID CTY ARPT CLEAR     61  59  93 CALM      29.99S
PIERRE         CLOUDY    65  63  93 E10       29.96F
CUSTER         PTCLDY    52  49  89 NW5       30.13R
ELLSWORTH AFB  PTCLDY    63  58  86 NW2       29.98S
PHILIP         CLOUDY    67  64  90 CALM      29.96S
PINE RIDGE     CLEAR     62  58  86 CALM      30.02S
WINNER         CLOUDY    66  63  90 SE7       30.00R
$$

SDZ004>011-016>023-039-040-051200-
NORTHEAST SOUTH DAKOTA

CITY           SKY/WX    TMP DP  RH WIND       PRES   REMARKS
ABERDEEN       PTCLDY    56  54  93 SE3       30.00F
WATERTOWN      MOCLDY    59  52  77 S3        30.04R
BROOKINGS      MOCLDY    59  54  82 CALM      30.06R
$$

SDZ017-020-022-023-036>040-048>070-051200-
SOUTHEAST SOUTH DAKOTA

CITY           SKY/WX    TMP DP  RH WIND       PRES   REMARKS
SIOUX FALLS    MOCLDY    60  55  83 E7        30.03S
HURON          CLOUDY   N/A N/A N/A SE7       30.00S
CHAMBERLAIN    PTCLDY    62  62  99 SE6       30.00R
MITCHELL       MOCLDY    61  60  97 SE5       30.02R
YANKTON        CLOUDY    64  63  94 E6        30.00R
$$

ABBREVIATIONS USED IN REMARKS
   TC - TEMPERATURE IN CELSIUS
  WCI - WIND CHILL INDEX
   HX - HEAT INDEX
  VSB - VISIBILITY



USA.gov is the U.S. government's official web portal to all federal, state and local government web resources and services.